Stations météo

réclame
Mon MeteoGroup
Augsburg, Allemagne (10852): Température de l'air & dewpoint: 13.07.2018 19:00:00 - 19.07.2018 19:00:00 (CEST)Augsburg, Allemagne (10852): Température de l'air 5cm & Température de l'air -5cm: 13.07.2018 19:00:00 - 19.07.2018 19:00:00 (CEST)Augsburg, Allemagne (10852): Température de l'air -20cm & Température de l'air -100cm: 13.07.2018 19:00:00 - 19.07.2018 19:00:00 (CEST)Augsburg, Allemagne (10852): Vitesse du vent & gusts: 13.07.2018 19:00:00 - 19.07.2018 19:00:00 (CEST)Augsburg, Allemagne (10852): Direction du vent: 13.07.2018 19:00:00 - 19.07.2018 19:00:00 (CEST)Augsburg, Allemagne (10852): reduced air pressure: 13.07.2018 19:00:00 - 19.07.2018 19:00:00 (CEST)Augsburg, Allemagne (10852): visibility: 13.07.2018 19:00:00 - 19.07.2018 19:00:00 (CEST)Augsburg, Allemagne (10852): Ensoleillement: 13.07.2018 19:00:00 - 19.07.2018 19:00:00 (CEST)Augsburg, Allemagne (10852): Quantités de précipitations: 13.07.2018 19:00:00 - 19.07.2018 19:00:00 (CEST)
Date & Time tt [°C] td [°C] tt 5cm [°C] tt -5cm [°C] tt -20cm [°C] tt -100cm [°C] ff [km/h] ff [knt] fx [km/h] fx [knt] dd ppp [hPa] vv [km] sd [min] rr [mm]
19.07.2018 19:00:00 26,0 9,1 26,5 33,8 26,8 15,7 13 7 19 11 NE 1013,4 26 60 0,0
19.07.2018 18:00:00 26,9 9,7 29,9 35,5 26,2 15,7 8 4 23 13 - 1013,4 10 60 0,0
19.07.2018 17:00:00 26,7 9,0 33,3 36,4 25,5 15,7 8 4 22 12 - 1013,9 10 60 0,0
19.07.2018 16:00:00 26,9 9,6 33,3 36,5 24,7 15,7 6 3 19 10 WNW 1014,4 27 60 0,0
19.07.2018 15:00:00 25,9 10,0 32,4 35,7 23,8 15,7 9 5 21 11 NNE 1015,0 35 60 0,0
19.07.2018 14:00:00 25,2 10,1 30,9 34,2 23,0 15,7 8 4 17 9 - 1015,4 10 59 0,0
19.07.2018 13:00:00 25,1 9,9 31,5 32,3 22,2 15,7 4 2 16 9 ENE 1015,9 29 60 0,0
19.07.2018 12:00:00 23,6 9,9 30,0 29,5 21,5 15,7 8 4 18 10 NNE 1016,2 10 60 0,0
19.07.2018 11:00:00 23,0 11,7 27,8 26,6 21,2 15,7 8 4 19 10 E 1016,4 25 60 0,0
19.07.2018 10:00:00 21,0 12,0 24,0 23,6 21,0 15,7 13 7 17 9 E 1016,9 10 57 0,0
19.07.2018 09:00:00 19,6 11,2 22,2 20,9 21,0 15,7 10 5 14 7 NE 1017,1 22 58 0,0
19.07.2018 08:00:00 16,6 12,6 20,9 18,7 21,3 15,7 2 1 4 2 - 1017,5 10 46 0,0
19.07.2018 07:00:00 12,8 11,7 14,3 17,3 21,7 15,7 2 1 5 3 N 1017,8 10 9 0,0
19.07.2018 06:00:00 10,6 10,3 8,9 17,4 22,1 15,7 4 2 5 3 ENE 1018,2 11 0 0,0
19.07.2018 05:00:00 11,7 11,2 9,5 18,1 22,5 15,7 3 2 4 2 ESE 1018,0 16 0 0,0
19.07.2018 04:00:00 11,8 11,1 10,5 18,7 23,0 15,7 5 3 6 4 ENE 1017,7 10 0 0,0
19.07.2018 03:00:00 12,2 11,2 9,9 19,3 23,5 15,7 5 3 6 4 E 1017,7 16 0 0,0
19.07.2018 02:00:00 12,9 12,1 11,1 20,1 23,9 15,7 2 1 4 2 - 1017,6 10 0 0,0
19.07.2018 01:00:00 13,4 12,6 11,4 21,0 24,4 15,7 3 1 4 2 WNW 1017,4 15 0 0,0
19.07.2018 00:00:00 15,0 12,9 12,4 22,1 24,8 15,7 2 1 4 2 W 1017,0 16 0 0,0
18.07.2018 23:00:00 16,2 13,2 13,3 23,3 25,2 15,7 5 3 9 5 NNE 1016,4 10 0 0,0
18.07.2018 22:00:00 17,6 13,2 15,5 24,9 25,5 15,7 8 4 16 9 NE 1015,8 5 0 0,0
18.07.2018 21:00:00 22,9 11,4 20,3 26,9 25,6 15,7 13 7 21 11 N 1014,4 26 52 0,0
18.07.2018 20:00:00 24,7 11,8 23,3 29,0 25,5 15,7 11 6 18 10 N 1013,9 10 55 0,0
18.07.2018 19:00:00 24,6 12,0 23,9 30,7 25,3 15,7 11 6 24 13 N 1014,0 35 40 0,0
18.07.2018 18:00:00 26,2 12,6 28,6 31,7 24,9 15,7 9 5 26 14 N 1013,8 10 27 0,0
18.07.2018 17:00:00 25,6 12,6 28,0 33,4 24,3 15,7 9 5 24 13 NNW 1014,2 27 41 0,0
18.07.2018 16:00:00 26,9 11,5 34,2 33,2 23,7 15,7 9 5 24 13 - 1014,1 10 52 0,0
18.07.2018 15:00:00 25,4 12,4 29,4 31,4 23,0 15,7 11 6 20 11 NW 1014,9 35 18 0,0
18.07.2018 14:00:00 25,8 12,3 34,9 32,4 22,2 15,7 9 5 24 13 WNW 1015,2 10 38 0,0
18.07.2018 13:00:00 25,4 13,4 36,0 32,0 21,3 15,7 9 5 24 13 W 1015,6 33 57 0,0
18.07.2018 12:00:00 24,6 13,1 31,8 29,4 20,6 15,7 5 3 18 10 W 1016,0 10 60 0,0
18.07.2018 11:00:00 23,5 14,8 30,8 26,2 20,1 15,7 8 4 19 10 W 1016,3 10 60 0,0
18.07.2018 10:00:00 21,2 13,0 28,1 23,0 19,9 15,7 11 6 19 10 WNW 1016,9 14 60 0,0
18.07.2018 09:00:00 19,9 13,5 24,5 20,0 20,4 15,7 13 7 17 9 W 1017,1 17 60 0,0
18.07.2018 08:00:00 17,0 13,7 19,1 17,3 20,6 15,7 3 2 8 4 SSW 1017,7 22 46 0,0
18.07.2018 07:00:00 13,5 12,4 13,4 16,1 21,0 15,7 2 1 8 4 - 1018,1 10 8 0,0
18.07.2018 06:00:00 12,5 12,1 10,5 16,2 21,3 15,7 8 4 8 4 SE 1018,2 10 0 0,0
18.07.2018 05:00:00 12,8 12,2 10,2 16,7 21,7 15,7 4 2 7 4 - 1018,0 10 0 0,0
18.07.2018 04:00:00 12,3 11,3 10,6 17,2 22,1 15,7 5 3 10 5 SE 1018,0 10 0 0,0
18.07.2018 03:00:00 13,1 12,4 10,7 17,7 22,5 15,7 7 4 9 5 SSE 1017,8 18 0 0,0
18.07.2018 02:00:00 13,1 12,1 10,5 18,4 23,0 15,7 6 3 8 4 S 1017,8 22 0 0,0
18.07.2018 01:00:00 14,4 11,6 11,9 19,2 23,4 15,7 5 3 9 5 S 1017,4 28 0 0,0
18.07.2018 00:00:00 15,4 12,8 12,5 20,1 23,8 15,7 4 2 10 6 WSW 1017,0 27 0 0,0
17.07.2018 23:00:00 15,9 13,6 13,1 21,2 24,1 15,6 4 2 10 5 SSW 1016,6 30 0 0,0
17.07.2018 22:00:00 17,9 13,7 16,8 22,6 24,4 15,6 4 2 15 8 - 1016,1 10 0 0,0
17.07.2018 21:00:00 18,6 13,7 17,8 23,6 24,7 15,6 8 5 21 12 WSW 1015,3 36 4 0,0
17.07.2018 20:00:00 19,7 13,6 19,8 25,2 24,8 15,6 15 8 27 15 WSW 1014,7 37 4 0,0
17.07.2018 19:00:00 19,6 13,4 20,0 26,8 24,6 15,6 23 13 43 23 W 1014,4 35 5 0,0
17.07.2018 18:00:00 25,4 12,4 26,4 29,5 24,3 15,6 21 11 33 18 WSW 1012,5 38 22 0,0
17.07.2018 17:00:00 24,6 12,5 25,6 32,0 23,6 15,6 21 11 37 20 WSW 1012,8 30 49 0,0
17.07.2018 16:00:00 25,7 13,0 29,6 31,9 22,9 15,6 21 11 33 18 WSW 1012,7 25 52 0,0
17.07.2018 15:00:00 25,6 11,9 30,8 31,5 22,2 15,6 10 5 19 10 SSW 1013,0 22 60 0,0
17.07.2018 14:00:00 24,5 12,1 29,5 27,5 21,6 15,6 9 5 34 19 SSW 1013,5 39 17 0,1
17.07.2018 13:00:00 24,7 12,5 30,2 29,7 20,9 15,6 10 5 25 14 N 1013,7 18 57 0,0
17.07.2018 12:00:00 24,1 12,8 31,9 26,0 20,3 15,6 13 7 22 12 NNW 1014,2 16 45 0,0
17.07.2018 11:00:00 22,8 12,8 29,1 24,4 19,8 15,6 9 5 18 10 W 1014,3 28 41 0,0
17.07.2018 10:00:00 21,5 15,0 26,0 22,1 19,6 15,6 11 6 16 9 WSW 1014,4 10 60 0,0
17.07.2018 09:00:00 19,0 14,4 23,7 19,4 18,8 15,6 9 5 14 8 W 1014,6 15 60 0,0
17.07.2018 08:00:00 16,9 13,9 18,3 16,9 19,0 15,6 3 2 4 2 SW 1014,8 15 60 0,0
17.07.2018 07:00:00 13,6 13,2 14,2 14,9 19,9 15,6 4 2 8 5 SSE 1015,4 8 39 0,0
17.07.2018 06:00:00 10,5 10,5 8,7 14,5 20,3 15,6 5 3 6 3 S 1015,7 2,9 0 0,0
17.07.2018 05:00:00 10,7 10,7 8,7 15,0 20,7 15,6 4 2 5 3 S 1015,2 3,8 0 0,0
17.07.2018 04:00:00 11,2 11,2 8,6 15,5 21,1 15,6 4 2 5 3 E 1014,8 10 0 0,0
17.07.2018 03:00:00 11,9 11,8 10,0 16,1 21,5 15,6 3 2 7 4 E 1014,8 10 0 0,0
17.07.2018 02:00:00 11,7 11,7 9,5 16,7 21,9 15,6 0 0 4 2 N 1014,6 8 0 0,0
17.07.2018 01:00:00 12,7 12,4 10,7 17,5 22,3 15,6 4 2 6 3 ENE 1014,1 10 0 0,0
17.07.2018 00:00:00 13,8 13,6 11,7 18,3 22,7 15,6 9 5 8 4 ENE 1013,6 10 0 0,0
16.07.2018 23:00:00 14,6 13,9 13,1 19,3 22,9 15,6 18 10 7 4 ENE 1013,2 10 0 0,0
16.07.2018 22:00:00 16,6 13,7 14,3 20,4 23,3 15,5 4 2 13 7 - 1012,6 10 0 0,0
16.07.2018 21:00:00 20,1 13,7 18,1 21,7 23,5 15,5 9 5 17 9 ENE 1011,3 36 25 0,0
16.07.2018 20:00:00 21,0 12,5 19,3 23,2 23,5 15,5 15 8 22 12 NE 1010,6 10 23 0,0
16.07.2018 19:00:00 22,8 13,3 23,0 26,2 23,3 15,5 2 1 19 10 - 1010,3 10 33 0,0
16.07.2018 18:00:00 23,6 14,0 25,0 26,4 23,1 15,5 0 0 9 5 N 1010,6 35 38 0,0
16.07.2018 17:00:00 22,9 13,7 27,7 25,9 23,0 15,5 6 3 27 15 W 1010,9 37 27 0,0
16.07.2018 16:00:00 22,0 13,3 23,5 24,8 22,5 15,5 8 5 13 7 NW 1011,8 34 8 0,0
16.07.2018 15:00:00 21,8 14,8 24,8 25,3 21,8 15,5 9 5 14 8 N 1012,0 10 5 0,0
16.07.2018 14:00:00 21,3 16,8 24,0 26,5 21,3 15,5 13 7 18 10 N 1012,4 10 29 0,6
16.07.2018 13:00:00 22,5 15,2 25,6 26,4 21,3 15,5 8 4 12 6 ENE 1012,8 22 25 0,0
16.07.2018 12:00:00 20,7 14,1 23,7 26,1 21,2 15,5 8 4 12 6 W 1013,4 10 43 0,0
16.07.2018 11:00:00 20,6 13,8 22,9 24,2 21,1 15,5 6 3 11 6 ESE 1013,9 18 59 0,0
16.07.2018 10:00:00 17,8 15,1 18,0 19,6 21,0 15,5 5 3 7 4 SE 1014,6 20 2 0,1
16.07.2018 09:00:00 16,4 15,2 16,4 18,4 20,9 15,5 6 3 8 4 SSE 1015,2 13 0 0,0
16.07.2018 08:00:00 15,2 14,7 15,2 17,3 21,1 15,5 5 3 8 5 SE 1015,6 11 0 1,9
16.07.2018 07:00:00 14,9 14,3 14,6 17,3 21,3 15,5 5 3 14 7 WSW 1015,9 4,7 0 2,0
16.07.2018 06:00:00 14,6 13,8 14,2 17,4 21,6 15,4 5 3 9 5 W 1015,4 15 0 0,0
16.07.2018 05:00:00 13,9 13,5 13,7 17,5 21,8 15,4 5 3 6 3 SE 1015,3 11 0 0,0
16.07.2018 04:00:00 14,1 13,7 13,5 17,5 22,2 15,4 4 2 11 6 ESE 1015,4 8 0 0,0
16.07.2018 03:00:00 13,8 13,5 13,0 17,6 22,6 15,4 8 4 10 5 ESE 1015,5 10 0 0,0
16.07.2018 02:00:00 12,8 12,8 12,3 17,9 23,0 15,4 6 3 7 4 SSE 1016,1 7 0 0,0
16.07.2018 01:00:00 12,6 12,5 11,3 18,5 23,4 15,4 2 1 7 4 SSE 1016,1 8 0 0,0
16.07.2018 00:00:00 13,7 13,6 12,9 19,1 23,9 15,4 6 3 11 6 NE 1015,9 11 0 0,0
15.07.2018 23:00:00 14,4 14,2 13,3 20,1 24,3 15,4 4 2 10 6 E 1015,7 10 0 0,0
15.07.2018 22:00:00 15,3 14,9 14,2 21,5 24,6 15,4 8 5 11 6 ENE 1015,9 12 0 0,0
15.07.2018 21:00:00 17,6 16,0 16,4 22,9 24,8 15,4 5 3 9 5 NE 1015,1 10 0 0,0
15.07.2018 20:00:00 19,4 16,4 18,8 24,3 24,9 15,4 5 3 10 5 S 1014,0 10 29 0,0
15.07.2018 19:00:00 20,8 14,7 20,6 25,9 25,0 15,4 5 3 12 6 NE 1013,8 30 54 0,0
15.07.2018 18:00:00 19,2 14,5 19,3 25,1 25,3 15,4 7 4 19 11 ESE 1014,5 25 14 0,0
15.07.2018 17:00:00 17,3 14,4 16,5 24,8 25,4 15,4 19 11 31 17 NE 1015,8 9 0 2,1
15.07.2018 16:00:00 18,6 14,1 17,0 28,6 25,0 15,4 9 5 34 18 NE 1015,8 10 0 1,3
15.07.2018 15:00:00 26,2 11,0 31,2 33,2 24,3 15,3 6 3 15 8 ESE 1012,8 35 47 0,0
15.07.2018 14:00:00 25,5 12,9 29,9 31,8 23,6 15,3 13 7 18 10 NNE 1013,4 10 24 0,0
15.07.2018 13:00:00 26,0 11,5 32,9 32,6 22,9 15,3 5 3 15 8 - 1014,0 10 59 0,0
15.07.2018 12:00:00 25,8 12,5 31,6 29,8 22,3 15,3 6 3 12 7 SE 1014,5 31 60 0,0
15.07.2018 11:00:00 24,3 13,3 30,9 26,9 21,9 15,3 8 4 15 8 WSW 1015,0 25 60 0,0
15.07.2018 10:00:00 22,9 13,8 28,2 24,1 21,7 15,3 10 6 18 10 WSW 1015,5 25 60 0,0
15.07.2018 09:00:00 20,7 14,9 25,2 21,5 21,8 15,3 3 2 10 5 SSW 1015,8 15 59 0,0
15.07.2018 08:00:00 17,3 14,9 19,7 19,3 22,0 15,3 5 3 10 5 SSE 1016,5 11 53 0,0
15.07.2018 07:00:00 14,5 13,7 14,5 18,2 22,3 15,3 8 4 12 6 SSE 1016,9 9 0 0,0
15.07.2018 06:00:00 12,2 12,2 11,3 18,1 22,6 15,3 4 2 4 2 SE 1017,2 10 0 0,0
15.07.2018 05:00:00 11,6 11,5 10,0 18,5 23,0 15,3 5 3 8 4 SSE 1017,3 7 0 0,0
15.07.2018 04:00:00 11,9 11,9 10,4 18,9 23,4 15,3 4 2 5 3 S 1017,5 7 0 0,0
15.07.2018 03:00:00 12,1 12,0 9,9 19,5 23,8 15,3 3 2 6 4 E 1017,4 9 0 0,0
15.07.2018 02:00:00 12,7 12,4 11,0 20,2 24,2 15,3 5 3 7 4 E 1017,6 10 0 0,0
15.07.2018 01:00:00 13,5 13,0 11,8 21,1 24,6 15,3 6 4 9 5 SSE 1017,7 14 0 0,0
15.07.2018 00:00:00 14,3 13,8 12,8 22,0 25,0 15,3 6 4 8 4 E 1017,5 13 0 0,0
14.07.2018 23:00:00 15,6 14,8 13,0 23,2 25,4 15,3 2 1 10 5 - 1017,3 10 0 0,0
14.07.2018 22:00:00 16,9 15,1 14,9 24,6 25,7 15,3 8 4 10 6 SE 1016,8 18 0 0,0
14.07.2018 21:00:00 20,6 18,1 18,6 26,5 25,7 15,3 5 3 8 4 ENE 1015,4 10 35 0,0
14.07.2018 20:00:00 23,9 15,4 23,2 27,9 25,6 15,3 5 3 12 7 E 1015,1 10 29 0,0
14.07.2018 19:00:00 23,9 15,7 23,9 29,1 25,4 15,3 11 6 16 9 SE 1015,4 24 26 0,0
14.07.2018 18:00:00 24,6 15,1 26,4 30,1 25,3 15,3 11 6 19 10 E 1015,4 10 60 0,0
14.07.2018 17:00:00 23,3 17,1 26,6 29,0 25,1 15,3 12 6 24 13 E 1015,9 18 16 0,2
14.07.2018 16:00:00 21,4 14,1 21,5 31,2 24,6 15,3 20 11 29 16 ENE 1016,6 24 20 0,1
14.07.2018 15:00:00 26,2 13,8 30,9 32,8 23,9 15,3 10 6 18 10 NE 1015,8 23 41 0,0
14.07.2018 14:00:00 25,5 13,2 34,1 32,2 23,2 15,3 9 5 24 13 NNE 1016,5 20 49 0,0
14.07.2018 13:00:00 24,0 14,7 28,8 31,5 22,5 15,3 19 11 29 15 NNE 1017,0 21 46 0,0
14.07.2018 12:00:00 24,9 13,0 31,1 28,9 22,0 15,3 5 3 14 7 SSW 1017,3 22 52 0,0
14.07.2018 11:00:00 23,9 13,2 29,2 25,6 21,4 15,3 5 3 8 5 SSE 1017,5 32 39 0,0
14.07.2018 10:00:00 20,9 14,6 22,1 22,6 20,9 15,3 4 2 8 4 NE 1018,3 22 2 0,0
14.07.2018 09:00:00 19,8 13,5 23,2 21,7 20,9 15,3 2 1 5 3 N 1018,7 18 37 0,0
14.07.2018 08:00:00 16,7 13,4 19,4 19,5 21,2 15,3 3 2 8 4 NE 1019,1 13 43 0,0
14.07.2018 07:00:00 13,3 12,3 14,8 18,0 21,5 15,3 3 2 6 4 SSE 1019,5 14 16 0,0
14.07.2018 06:00:00 10,9 10,5 9,2 18,1 21,9 15,3 5 3 6 3 E 1020,0 12 0 0,0
14.07.2018 05:00:00 11,1 10,6 9,3 18,6 22,3 15,3 3 1 9 5 NE 1020,0 9 0 0,0
14.07.2018 04:00:00 11,5 10,8 9,8 19,2 22,7 15,3 7 4 9 5 E 1019,6 13 0 0,0
14.07.2018 03:00:00 11,8 11,1 10,3 19,9 23,1 15,3 4 2 6 3 SSE 1019,7 14 0 0,0
14.07.2018 02:00:00 13,1 11,8 10,5 20,7 23,5 15,3 3 1 6 3 SE 1019,7 19 0 0,0
14.07.2018 01:00:00 13,6 12,4 11,0 21,6 23,9 15,3 2 1 4 2 - 1019,7 10 0 0,0
14.07.2018 00:00:00 15,0 12,2 13,1 22,7 24,3 15,3 5 3 8 4 E 1019,4 24 0 0,0
13.07.2018 23:00:00 16,0 12,9 13,6 24,0 24,6 15,3 7 4 9 5 ENE 1018,9 27 0 0,0
13.07.2018 22:00:00 17,9 14,0 15,2 25,6 24,8 15,3 5 3 9 5 E 1018,4 11 0 0,0
13.07.2018 21:00:00 22,5 12,1 18,7 27,7 24,8 15,3 7 4 13 7 NE 1016,9 35 58 0,0
13.07.2018 20:00:00 24,1 12,3 23,8 29,9 24,6 15,3 9 5 15 8 N 1016,4 36 55 0,0
13.07.2018 19:00:00 25,8 10,3 27,9 31,7 24,3 15,3 11 6 16 9 NW 1016,1 10 59 0,0

tt = Température de l'air
td = dewpoint
tt 5cm = Température de l'air 5cm
tt -5cm = Température de l'air -5cm
tt -20cm = Température de l'air -20cm
tt -100cm = Température de l'air -100cm
ff = Vitesse du vent
fx = gusts
dd = Direction du vent
ppp = reduced air pressure
vv = visibility
sd = Ensoleillement
rr = Quantités de précipitations

stations d'obs. à proximité